Weather History for Dunkirk, NY

Change the Weather History Date:

Friday, November 23, 2012

  Actual Average Record
Temperature  
Mean Temperature 44 °F -  
Max Temperature 53 °F 47 °F 73 °F (1931)
Min Temperature 35 °F 32 °F 12 °F (2000)
Degree Days  
Heating Degree Days 21    
Moisture  
Dew Point 34 °F    
Average Humidity 67    
Maximum Humidity 93    
Minimum Humidity 43    
Precipitation  
Precipitation 0.15 in - - ()
Sea Level Pressure  
Sea Level Pressure 29.78 in    
Wind  
Wind Speed 19 mph (SW)    
Max Wind Speed 28 mph    
Max Gust Speed 46 mph    
Visibility 9 miles    
Events Rain , Snow    
Averages and records for this station are not official NWS values.
T = Trace of Precipitation, MM = Missing Value Source: NWS Daily Summary

Daily Weather History Graph

Daily Weather History Graph

Search for Another Location

Airport:

Trip Planner

Search our weather history database for the weather conditions in past years. The results will help you decide how hot, cold, wet, or windy it might be!

Date:

Astronomy

Nov. 23, 2012 Rise Set
Actual Time 7:18 AM EST 4:48 PM EST
Civil Twilight 6:47 AM EST 5:19 PM EST
Nautical Twilight 6:13 AM EST 5:53 PM EST
Astronomical Twilight 5:39 AM EST 6:27 PM EST
Moon 2:06 PM EST (11/23) 2:30 AM EST (11/23)
Length of Visible Light 10h 31m
Length of Day
9h 29m
Waxing Gibbous, 79% of the Moon is Illuminated
Nov 23
Waxing Gibbous
Nov 28
Full
Dec 6
Last Quarter
Dec 13
New
Dec 20
First Quarter

Hourly Weather History & Observations

Time (EST) Temp. Windchill Dew Point Humidity Pressure Visibility Wind Dir Wind Speed Gust Speed Precip Events Conditions
12:53 AM 52.0 °F - 30.9 °F 45% 29.91 in 10.0 mi South 16.1 mph 23.0 mph N/A   Clear
1:53 AM 53.1 °F - 30.9 °F 43% 29.89 in 10.0 mi SSW 15.0 mph 26.5 mph N/A   Clear
2:53 AM 53.1 °F - 30.9 °F 43% 29.86 in 10.0 mi SSW 19.6 mph 31.1 mph N/A   Partly Cloudy
3:53 AM 53.1 °F - 32.0 °F 45% 29.83 in 10.0 mi SSW 17.3 mph 26.5 mph N/A   Scattered Clouds
4:53 AM 52.0 °F - 33.1 °F 49% 29.81 in 10.0 mi South 16.1 mph 23.0 mph N/A   Clear
5:53 AM 52.0 °F - 33.1 °F 49% 29.78 in 10.0 mi South 12.7 mph 20.7 mph N/A   Clear
6:53 AM 52.0 °F - 34.0 °F 50% 29.76 in 10.0 mi SSW 16.1 mph 21.9 mph N/A   Mostly Cloudy
7:43 AM 51.8 °F - 37.4 °F 58% 29.75 in 10.0 mi SSW 13.8 mph 25.3 mph 0.00 in   Overcast
7:53 AM 52.0 °F - 37.0 °F 57% 29.75 in 10.0 mi SSW 20.7 mph 26.5 mph 0.00 in   Overcast
8:04 AM 51.8 °F - 39.2 °F 62% 29.75 in 10.0 mi SSW 17.3 mph 29.9 mph 0.00 in Rain Light Rain
8:53 AM 50.0 °F - 41.0 °F 71% 29.74 in 10.0 mi SSW 16.1 mph 24.2 mph 0.00 in   Overcast
9:53 AM 48.0 °F - 44.1 °F 86% 29.74 in 6.0 mi SSW 13.8 mph 21.9 mph 0.02 in Rain Light Rain
10:53 AM 50.0 °F - 45.0 °F 83% 29.73 in 10.0 mi SSW 16.1 mph 23.0 mph 0.01 in   Overcast
11:39 AM 51.8 °F - 44.6 °F 76% 29.71 in 10.0 mi WSW 18.4 mph 25.3 mph N/A   Overcast
11:53 AM 51.1 °F - 44.1 °F 77% 29.71 in 10.0 mi WSW 24.2 mph 35.7 mph N/A   Overcast
12:53 PM 46.9 °F - 37.9 °F 71% 29.73 in 10.0 mi WSW 23.0 mph 38.0 mph N/A   Overcast
1:53 PM 48.0 °F - 39.0 °F 71% 29.73 in 10.0 mi WSW 26.5 mph 38.0 mph N/A   Overcast
2:53 PM 45.0 °F 38.2 °F 35.1 °F 68% 29.74 in 10.0 mi WSW 15.0 mph 25.3 mph N/A   Overcast
3:03 PM 44.6 °F 35.7 °F 35.6 °F 71% 29.74 in 10.0 mi WSW 24.2 mph 46.0 mph N/A   Mostly Cloudy
3:53 PM 44.1 °F 35.7 °F 32.0 °F 63% 29.75 in 10.0 mi WSW 20.7 mph 33.4 mph N/A   Overcast
4:06 PM 44.6 °F 35.9 °F 33.8 °F 66% 29.75 in 10.0 mi WSW 23.0 mph 34.5 mph N/A   Overcast
4:45 PM 42.8 °F 32.7 °F 30.2 °F 61% 29.76 in 10.0 mi WSW 27.6 mph 40.3 mph N/A   Overcast
4:53 PM 43.0 °F 33.3 °F 30.0 °F 60% 29.77 in 10.0 mi WSW 25.3 mph 39.1 mph N/A   Overcast
5:53 PM 39.9 °F 30.2 °F 28.9 °F 65% 29.78 in 10.0 mi WSW 20.7 mph 38.0 mph 0.00 in Rain Light Rain
6:11 PM 37.4 °F 26.1 °F 33.8 °F 87% 29.77 in 4.0 mi SW 24.2 mph 36.8 mph 0.03 in Rain Rain
6:35 PM 35.6 °F 23.4 °F 32.0 °F 87% 29.79 in 1.8 mi SW 25.3 mph 36.8 mph 0.09 in Snow Light Snow
6:41 PM 35.6 °F 24.5 °F 32.0 °F 87% 29.79 in 2.5 mi West 20.7 mph 35.7 mph 0.10 in Snow Light Snow
6:48 PM 35.6 °F 24.5 °F 33.8 °F 93% 29.79 in 9.0 mi West 20.7 mph 33.4 mph 0.10 in Rain Light Rain
6:53 PM 36.0 °F 25.6 °F 33.1 °F 89% 29.80 in 7.0 mi West 18.4 mph 32.2 mph 0.10 in Snow Light Snow
7:14 PM 37.4 °F 25.9 °F 30.2 °F 75% 29.79 in 5.0 mi WSW 25.3 mph 40.3 mph 0.01 in Snow Light Snow
7:53 PM 37.0 °F 25.9 °F 30.9 °F 79% 29.81 in 8.0 mi West 23.0 mph 35.7 mph 0.02 in Snow Light Snow
8:26 PM 35.6 °F 25.2 °F 28.4 °F 75% 29.81 in 8.0 mi West 18.4 mph 36.8 mph 0.00 in Snow Light Snow
8:53 PM 37.0 °F 27.4 °F 26.1 °F 65% 29.82 in 10.0 mi West 17.3 mph 35.7 mph 0.00 in   Overcast
9:53 PM 37.0 °F 27.4 °F 25.0 °F 62% 29.82 in 9.0 mi West 17.3 mph 36.8 mph 0.00 in   Overcast
10:53 PM 37.0 °F 26.2 °F 21.0 °F 52% 29.83 in 10.0 mi WSW 21.9 mph 36.8 mph 0.00 in   Overcast
11:53 PM 37.0 °F 26.4 °F 24.1 °F 59% 29.83 in 10.0 mi West 20.7 mph 36.8 mph 0.00 in   Overcast